Total_Precipitation_Accumulation
0.06 0.06 0.02 0.02 0.01 0.00 0.02 0.22 0.81 0.72 0.16 0.35 0.53 0.18 0.89 0.11 0.51 0.29 0.31 0.13 0.27 0.15 0.22 0.27 0.35 0.41 0.34 0.39 0.12 0.12 0.12 0.09 0.25 0.34 0.98 2.02 1.20 1.05 1.01 0.62 0.56 0.74 0.79 1.39 2.93 1.77 2.33 3.64 4.04 6.59 7.54 7.45 8.04 10.93 8.35 7.36 6.45 5.10 4.66 4.77 5.88 4.51 4.24 3.56 3.31 3.48 2.81 3.12 2.92 3.30 3.25 2.38 1.70 2.00 2.54 3.70 5.26 4.58 2.76 1.73 1.30 2.04 2.51 3.14 3.44 3.06 2.88 2.72 3.00 3.13 3.51 3.43 2.82 2.50 1.83 1.44 1.11
0.03 0.02 0.03 0.02 0.05 0.00 0.30 0.22 0.69 0.29 0.25 0.31 0.24 0.44 0.60 0.21 0.08 0.53 0.50 0.37 0.46 0.40 0.47 0.16 0.27 0.13 0.10 0.09 0.05 0.22 0.22 0.43 0.35 0.50 0.89 1.66 1.18 1.08 0.75 0.51 0.62 0.47 0.73 2.09 2.88 2.58 2.62 3.69 4.48 3.86 3.85 4.10 4.53 6.11 6.50 5.95 7.12 6.53 5.21 4.98 5.36 4.20 3.59 3.52 3.34 3.44 2.90 3.12 2.76 2.59 2.53 3.11 3.22 2.75 2.62 2.42 2.48 2.67 3.10 3.34 2.88 3.06 2.14 2.01 2.11 2.43 2.70 3.14 3.23 2.83 2.89 2.76 2.46 2.16 1.73 1.36 1.49
0.00 0.01 0.01 0.01 0.01 0.04 0.09 0.13 0.37 0.21 0.57 0.43 0.60 0.41 0.55 0.66 0.38 0.33 0.36 0.25 0.08 0.15 0.06 0.15 0.07 0.11 0.46 0.21 0.25 0.31 1.02 0.52 0.23 0.55 1.06 0.66 0.72 0.93 0.73 0.62 0.56 0.54 0.82 1.66 1.84 2.17 2.71 4.71 3.02 2.94 2.98 3.65 3.86 3.86 4.43 6.52 5.96 6.22 5.93 5.60 5.58 4.52 5.15 4.69 4.52 4.13 3.14 2.66 2.69 2.81 2.60 2.57 2.79 2.58 2.35 2.45 2.07 2.40 2.15 2.22 2.27 2.03 2.17 2.02 1.96 1.95 2.16 2.08 1.89 2.32 2.01 2.57 2.54 1.88 2.13 1.66 1.88
0.04 0.01 0.02 0.02 0.13 0.02 0.06 0.32 0.17 0.54 0.48 0.54 1.24 0.65 0.60 0.38 0.46 0.25 0.57 0.40 0.24 0.03 0.08 0.02 0.01 0.03 0.04 0.05 0.09 0.04 0.24 0.55 0.35 0.40 0.61 0.77 0.65 0.91 0.69 0.72 0.92 0.78 0.57 0.89 0.69 1.38 1.93 2.98 2.33 2.11 2.25 2.76 3.14 4.20 3.66 3.27 4.77 5.17 5.00 5.27 4.95 5.72 4.85 4.09 4.50 3.86 3.82 3.30 3.07 3.08 2.59 2.29 2.21 2.18 2.16 1.96 1.84 1.44 1.45 1.68 1.77 1.56 1.36 1.46 1.63 1.72 1.35 1.48 1.84 1.78 1.42 1.27 1.96 1.95 1.60 1.85 1.46
0.07 0.12 0.06 0.06 0.02 0.23 0.17 0.44 0.32 0.22 0.46 1.02 1.01 0.80 0.43 0.40 0.57 0.30 0.39 0.18 0.17 0.26 0.14 0.03 0.00 0.02 0.01 0.03 0.05 0.12 0.26 0.29 0.36 0.28 0.60 0.72 0.47 1.37 1.28 1.14 0.97 1.69 2.04 0.74 0.45 0.64 1.11 1.96 2.08 1.66 1.70 2.47 3.39 2.81 2.94 3.80 3.78 4.15 4.71 4.72 4.27 3.58 3.85 3.45 3.31 3.11 2.91 2.74 2.36 2.09 1.76 1.74 1.75 1.60 2.16 2.13 1.51 1.62 1.94 1.54 1.19 0.93 1.20 1.43 1.44 1.69 1.82 1.65 1.74 1.57 1.21 0.98 0.93 1.54 1.83 1.91 2.18
0.07 0.02 0.03 0.02 0.18 0.37 0.06 0.17 0.20 0.30 0.63 0.57 0.76 0.55 0.22 0.37 0.11 0.07 0.12 0.05 0.04 0.03 0.06 0.03 0.05 0.02 0.01 0.03 0.03 0.19 0.23 0.39 0.59 0.32 0.39 0.70 0.80 1.60 1.73 0.94 1.54 0.62 1.11 0.82 0.49 0.41 0.72 0.95 1.21 1.24 1.34 1.81 2.64 2.61 2.56 2.59 3.20 3.69 3.88 4.00 4.89 3.58 4.06 3.63 3.91 3.21 3.13 3.22 3.27 2.75 2.38 2.19 2.09 2.21 1.98 1.80 1.80 2.10 1.70 1.42 1.73 1.71 1.41 1.39 1.43 1.78 1.76 1.56 1.04 1.10 0.76 0.90 1.05 0.89 1.22 1.36 1.47
0.12 0.09 0.11 0.08 0.04 0.09 0.52 0.41 0.65 0.68 0.64 0.06 0.15 0.23 0.63 0.32 0.33 0.23 0.19 0.23 0.19 0.17 0.25 0.16 0.01 0.14 0.38 0.06 0.02 0.29 0.12 0.13 0.35 0.71 0.38 0.99 2.62 2.28 1.63 1.66 0.85 2.29 0.60 0.81 0.78 0.40 0.69 0.83 0.92 1.31 1.35 2.16 2.73 3.06 2.65 2.05 2.70 2.59 3.46 3.24 3.03 3.67 3.72 2.84 2.63 2.95 3.11 2.69 2.57 2.22 2.28 2.50 2.19 2.20 2.08 2.61 2.93 3.06 2.78 2.24 2.10 1.97 1.88 1.57 1.41 1.36 1.21 1.09 0.96 0.79 0.79 0.68 0.86 0.81 0.97 1.02 1.07
0.09 0.24 0.67 0.63 0.72 0.34 0.40 0.44 0.48 0.18 0.54 0.32 0.11 0.21 0.16 0.41 0.41 0.14 0.47 0.55 0.58 0.10 0.25 0.14 0.17 0.01 0.10 0.04 0.09 0.40 0.13 0.14 0.28 0.49 0.85 1.88 1.55 1.30 1.51 1.86 1.09 0.75 1.56 0.90 1.29 1.47 0.41 0.73 0.69 0.99 1.56 2.34 1.83 1.51 2.48 2.54 2.38 2.21 3.01 3.24 3.03 3.11 3.60 2.98 3.58 2.32 2.10 2.26 2.03 2.20 2.25 2.81 2.72 2.47 2.58 2.24 1.90 1.91 1.98 2.00 1.95 1.79 1.37 1.29 1.04 1.29 1.36 1.12 0.88 1.05 0.84 0.73 0.83 0.90 0.77 0.72 0.77
0.25 0.37 0.42 0.33 0.47 0.41 0.27 0.37 0.26 0.18 0.22 0.18 0.17 0.08 0.02 0.12 0.16 0.80 0.80 0.22 0.60 0.34 0.29 0.37 0.58 0.23 0.48 0.04 0.14 0.40 0.22 0.50 0.25 0.58 1.24 0.84 0.86 0.85 0.88 0.96 0.97 1.85 2.05 1.53 1.75 0.86 1.43 0.75 0.74 0.98 2.31 2.48 3.27 2.17 2.19 2.34 1.96 1.87 2.60 2.56 2.68 3.41 3.52 3.07 2.85 2.92 3.75 4.09 4.20 3.95 3.40 3.18 2.90 2.69 2.70 2.28 2.32 2.01 1.95 2.16 1.68 1.46 1.61 1.41 1.31 1.25 1.35 1.08 1.13 1.01 0.96 0.87 0.99 0.91 0.90 0.82 0.92
0.15 0.31 0.29 0.39 0.36 0.30 0.18 0.44 0.08 0.37 0.52 0.33 0.25 0.17 0.13 0.11 0.16 0.11 0.55 1.60 0.89 0.98 0.52 0.39 0.38 0.25 0.15 0.60 0.44 0.42 0.81 0.74 1.03 1.33 1.37 1.98 1.27 0.81 0.97 0.95 0.74 0.88 0.83 1.71 1.49 1.69 1.27 1.18 1.34 1.22 1.92 2.08 1.96 2.44 2.32 1.29 1.50 1.82 1.50 1.39 1.94 2.10 1.77 2.37 2.09 2.07 2.48 2.35 2.36 2.44 2.69 2.83 2.63 2.83 2.66 2.60 2.56 2.42 2.27 2.53 2.33 2.12 2.23 1.98 1.79 1.66 1.54 1.28 1.55 1.15 1.14 1.14 1.09 0.96 0.97 0.91 0.78
0.17 0.37 0.32 0.33 0.20 0.41 0.30 0.62 0.27 0.19 0.15 0.29 0.16 0.02 0.15 0.06 0.12 0.25 0.24 0.60 0.81 0.89 1.16 0.86 0.48 0.51 0.18 0.66 0.48 0.69 0.41 0.96 1.27 1.41 1.13 0.80 0.68 0.79 0.57 1.35 0.94 1.12 1.25 0.77 0.75 0.85 1.39 1.20 1.52 1.93 1.39 2.23 2.14 1.60 1.74 1.86 2.02 2.32 2.11 2.07 2.15 2.14 2.17 2.16 2.28 1.98 1.95 1.89 2.09 2.59 2.38 2.48 2.28 2.07 2.18 2.37 2.10 2.03 2.04 2.44 2.28 1.95 1.81 2.32 2.17 2.01 1.62 1.36 1.33 1.21 1.04 1.08 0.97 1.07 0.98 1.22 1.31
0.22 0.30 0.14 0.33 0.17 0.33 0.33 0.43 0.36 0.38 0.27 0.21 0.18 0.14 0.10 0.14 0.07 0.24 0.45 0.20 0.80 0.82 0.80 0.71 1.20 0.39 0.63 0.34 0.89 0.90 0.55 0.56 0.62 1.28 1.77 0.85 1.10 0.62 0.62 1.07 1.51 1.28 1.28 1.62 1.34 0.84 0.93 1.07 1.61 1.58 2.16 1.97 2.43 1.86 1.99 1.46 2.27 1.97 2.53 2.22 1.41 1.71 1.69 2.01 2.14 1.79 1.76 1.83 1.89 1.79 1.99 1.91 2.05 1.73 1.95 1.83 2.20 1.97 1.80 1.92 2.41 2.04 1.87 1.70 2.13 2.32 2.08 1.94 1.80 1.45 1.43 1.23 1.28 1.08 1.30 1.05 1.10
0.23 0.09 0.23 0.28 0.13 0.18 0.36 0.15 0.60 0.33 0.19 0.19 0.30 0.16 0.09 0.16 0.16 0.08 0.39 0.56 0.93 0.90 0.74 0.75 0.93 0.82 0.80 0.42 0.96 0.93 1.81 1.78 1.33 1.20 1.88 1.53 1.78 1.37 0.84 0.77 1.39 1.56 1.32 1.65 1.84 1.57 1.48 1.21 1.18 1.31 1.49 2.04 2.26 2.62 2.91 2.41 2.06 1.89 2.25 2.61 1.76 1.80 1.75 1.95 1.53 1.50 1.33 1.49 1.93 2.13 2.18 1.88 1.86 1.69 1.73 1.77 1.83 2.14 2.16 2.09 2.04 1.74 1.61 1.89 1.86 2.22 2.20 2.55 2.42 1.88 1.96 1.70 1.79 1.83 1.52 1.02 1.11
0.14 0.22 0.20 0.26 0.37 0.12 0.38 0.39 0.32 0.46 0.20 0.22 0.03 0.33 0.33 0.26 0.05 0.05 0.50 0.46 0.16 0.28 0.78 0.43 0.43 1.20 0.93 0.47 0.94 1.11 0.96 1.58 1.19 1.02 1.44 1.85 1.67 2.29 1.74 1.37 0.82 1.33 1.59 0.91 1.35 1.65 1.67 1.15 1.01 0.99 1.11 1.35 1.71 1.76 1.49 1.56 1.90 2.10 1.78 2.04 1.90 1.70 1.74 1.90 2.09 2.04 2.56 2.45 2.52 1.85 1.76 2.45 2.10 1.94 1.62 1.60 1.79 1.89 1.72 1.87 2.00 1.89 2.02 1.93 1.95 1.80 2.19 2.17 2.11 2.35 1.93 1.85 1.73 1.32 1.37 1.61 1.47
0.03 0.06 0.07 0.17 0.39 0.36 0.28 0.34 0.56 0.27 0.26 0.02 0.11 0.06 0.01 0.08 0.11 0.06 0.04 0.27 0.06 0.26 0.16 0.47 0.30 0.29 1.04 0.73 0.55 0.50 0.60 1.26 1.00 0.84 0.90 1.29 1.60 1.88 1.85 1.51 1.23 0.94 1.08 1.21 1.02 0.84 1.65 1.66 1.61 1.31 0.99 0.87 1.15 1.53 1.62 1.64 1.39 1.29 1.82 1.68 2.09 2.60 2.51 2.54 2.87 3.21 2.87 1.94 1.60 1.45 1.40 1.31 1.63 1.46 1.64 1.62 1.49 1.16 1.11 1.81 1.55 1.77 1.53 1.97 1.89 1.84 1.56 1.67 1.97 2.01 1.87 2.44 2.24 1.64 1.61 0.97 1.52
0.00 0.00 0.02 0.21 0.12 0.15 0.48 0.26 0.46 0.20 0.28 0.04 0.04 0.01 0.03 0.01 0.00 0.05 0.03 0.03 0.02 0.02 0.46 0.38 0.16 0.37 0.42 0.71 0.68 0.68 0.54 0.54 1.08 1.12 0.93 0.92 0.98 0.90 1.28 1.33 1.45 1.16 1.11 0.97 0.84 0.59 0.54 0.90 1.36 1.30 1.24 1.27 0.98 1.08 1.34 1.64 2.20 2.43 2.60 3.35 3.19 3.00 2.86 2.47 3.19 3.47 3.58 3.54 2.89 1.69 1.20 1.11 0.89 1.12 1.23 1.49 1.32 1.57 1.30 1.59 1.37 1.65 1.51 1.60 1.59 1.84 1.89 2.22 1.93 1.83 1.88 2.47 2.80 2.34 1.71 2.10 1.47
0.00 0.00 0.12 0.04 0.15 0.05 0.66 0.35 0.35 0.37 0.15 0.03 0.02 0.04 0.09 0.05 0.00 0.00 0.00 0.00 0.09 0.01 0.00 0.01 0.53 0.33 0.21 0.51 0.71 0.51 0.53 0.65 0.63 1.09 1.10 0.92 0.75 0.67 0.73 0.95 1.07 1.16 0.81 0.74 0.68 0.81 0.62 0.50 0.49 0.92 1.08 1.13 1.45 1.29 1.61 1.60 2.03 1.56 1.88 1.95 2.38 3.59 3.10 3.63 3.22 3.15 2.93 2.56 2.05 1.64 1.69 1.10 1.08 1.07 0.94 1.15 1.29 1.06 0.87 0.80 0.80 1.18 1.17 1.20 1.30 1.22 1.47 1.59 2.32 2.19 1.78 1.84 2.92 2.48 1.93 1.00 1.00
0.01 0.06 0.02 0.05 0.14 0.06 0.15 0.22 0.59 0.15 0.24 0.40 0.11 0.08 0.06 0.25 0.00 0.01 0.01 0.03 0.01 0.03 0.26 0.02 0.02 0.40 0.61 0.41 0.33 0.69 0.58 0.49 0.63 0.53 0.72 0.93 0.96 0.67 0.53 0.52 0.53 0.72 0.92 1.20 0.97 0.97 0.96 0.70 0.61 0.42 0.42 0.79 0.79 0.89 1.12 1.04 1.18 1.91 1.37 1.25 1.83 1.92 2.45 2.87 3.76 3.50 2.83 2.80 2.68 2.54 2.20 2.32 1.77 1.43 1.26 1.21 1.17 1.33 1.23 1.24 1.04 1.03 1.25 1.61 1.22 1.48 1.50 1.67 1.53 1.47 2.17 2.11 1.91 1.44 1.42 1.64 1.19
0.04 0.07 0.05 0.06 0.03 0.05 0.04 0.32 0.49 0.39 0.19 0.28 0.09 0.07 0.02 0.02 0.00 0.06 0.01 0.02 0.00 0.00 0.02 0.10 0.08 0.05 0.21 0.61 0.53 0.37 0.49 0.58 0.52 0.46 0.39 0.50 0.82 1.04 0.97 0.76 0.53 0.45 0.48 0.70 0.80 0.76 0.67 0.64 0.60 0.62 0.57 0.51 0.63 0.61 0.80 0.59 0.58 0.70 0.82 1.02 1.00 1.05 1.36 2.41 1.79 2.15 2.33 2.35 2.67 2.26 1.99 1.72 1.61 1.52 1.48 1.10 1.19 0.97 1.18 1.01 0.92 0.79 0.97 1.06 1.42 1.00 1.03 1.09 1.43 1.79 1.58 1.48 1.50 1.49 1.53 1.20 1.48
0.02 0.17 0.07 0.04 0.02 0.20 0.02 0.28 0.46 0.41 0.41 0.16 0.13 0.17 0.05 0.03 0.23 0.03 0.01 0.01 0.20 0.11 0.15 0.03 0.09 0.12 0.13 0.40 0.63 0.68 0.62 0.64 0.76 0.64 0.60 0.51 0.51 0.52 0.50 0.79 0.95 0.73 0.52 0.53 0.47 0.54 0.39 0.50 0.36 0.33 0.31 0.33 0.27 0.32 0.33 0.30 0.55 0.95 0.54 0.79 0.60 0.88 0.71 0.95 1.36 1.27 1.19 0.89 1.35 1.17 1.35 1.13 1.02 1.05 0.92 0.73 0.55 0.49 0.71 0.73 0.86 0.72 0.91 0.98 1.12 1.10 1.08 1.04 1.26 1.15 1.43 1.61 1.64 1.21 1.05 0.90 1.15
0.03 0.08 0.05 0.02 0.02 0.17 0.06 0.18 0.49 0.50 0.33 0.27 0.23 0.06 0.04 0.09 0.10 0.02 0.00 0.02 0.00 0.04 0.02 0.00 0.05 0.05 0.12 0.18 0.19 0.72 0.75 0.69 0.85 0.94 0.83 0.58 0.53 0.45 0.46 0.37 0.37 0.43 0.47 0.41 0.24 0.23 0.23 0.20 0.24 0.22 0.25 0.23 0.27 0.56 0.34 0.26 0.15 0.20 0.23 0.34 0.57 0.45 0.58 0.56 1.10 1.46 1.02 0.90 0.65 0.95 0.77 0.83 0.98 0.70 0.54 0.85 0.90 0.84 0.83 0.67 0.79 0.64 0.69 0.85 0.84 1.11 1.26 1.64 1.31 1.34 1.33 1.47 1.36 1.49 1.37 1.15 1.00
0.02 0.02 0.01 0.01 0.01 0.05 0.14 0.07 0.48 0.55 0.46 0.42 0.28 0.23 0.09 0.04 0.05 0.06 0.04 0.07 0.02 0.09 0.08 0.20 0.09 0.00 0.04 0.10 0.18 0.29 0.33 0.52 0.49 0.57 0.67 0.80 0.60 0.41 0.32 0.24 0.22 0.16 0.16 0.21 0.15 0.10 0.08 0.07 0.05 0.10 0.13 0.10 0.12 0.20 0.29 0.27 0.55 0.31 0.46 0.86 0.33 0.53 0.83 0.74 0.87 1.49 1.79 1.24 1.30 1.00 0.74 1.39 1.11 0.84 0.85 1.13 0.41 0.63 0.52 0.64 0.70 1.08 0.90 0.74 0.68 0.68 0.70 0.82 0.91 0.84 1.05 0.77 0.92 1.14 1.12 1.08 1.40
0.17 0.01 0.01 0.01 0.01 0.06 0.05 0.15 0.20 0.75 0.60 0.29 0.15 0.13 0.04 0.07 0.15 0.05 0.05 0.01 0.04 0.07 0.12 0.15 0.23 0.13 0.06 0.11 0.11 0.16 0.20 0.23 0.41 0.45 0.33 0.40 0.52 0.47 0.32 0.21 0.12 0.08 0.06 0.06 0.08 0.05 0.05 0.07 0.04 0.03 0.08 0.11 0.17 0.12 0.19 0.35 0.18 0.20 0.28 0.26 0.34 0.52 0.53 0.66 0.94 1.13 1.72 1.50 1.28 1.63 1.66 1.34 1.26 1.39 1.11 0.87 0.80 0.65 0.67 1.03 0.66 0.61 0.79 0.74 0.73 0.73 0.71 0.71 0.77 0.67 0.66 0.80 0.70 0.82 0.86 0.94 0.94
0.14 0.06 0.01 0.02 0.04 0.04 0.05 0.06 0.05 0.30 0.60 0.37 0.20 0.11 0.11 0.18 0.16 0.11 0.27 0.00 0.06 0.07 0.09 0.12 0.06 0.03 0.13 0.06 0.07 0.09 0.18 0.21 0.19 0.33 0.41 0.36 0.43 0.49 0.37 0.29 0.25 0.15 0.06 0.07 0.08 0.08 0.05 0.02 0.03 0.13 0.06 0.09 0.14 0.19 0.21 0.19 0.24 0.53 0.31 0.54 0.21 0.26 0.36 0.58 0.48 0.87 0.64 0.79 1.10 1.29 0.99 2.07 1.83 1.59 0.97 0.74 0.56 0.87 1.02 0.75 0.83 0.53 0.31 0.54 1.34 1.48 0.73 0.85 1.13 0.68 0.81 1.39 0.87 0.74 0.87 0.90 1.04
0.03 0.03 0.04 0.02 0.03 0.02 0.08 0.06 0.08 0.22 0.52 0.52 0.37 0.20 0.08 0.23 0.15 0.06 0.07 0.09 0.10 0.05 0.03 0.03 0.05 0.04 0.03 0.06 0.03 0.02 0.02 0.04 0.10 0.18 0.14 0.18 0.27 0.41 0.32 0.24 0.21 0.16 0.13 0.07 0.03 0.07 0.06 0.02 0.01 0.09 0.16 0.14 0.15 0.37 0.43 0.46 0.24 0.19 0.12 0.22 0.33 0.64 0.64 0.51 0.52 0.72 0.90 1.11 1.07 1.36 1.34 1.37 1.50 1.25 1.02 1.19 1.90 1.33 0.89 0.68 0.70 0.89 1.44 0.82 0.58 0.74 0.98 0.73 0.93 0.93 0.92 0.84 0.95 0.88 1.15 0.85 0.86
0.01 0.08 0.12 0.22 0.14 0.11 0.10 0.19 0.09 0.10 0.24 0.50 0.39 0.11 0.07 0.05 0.09 0.09 0.18 0.18 0.18 0.00 0.00 0.00 0.02 0.02 0.03 0.03 0.00 0.01 0.00 0.00 0.02 0.01 0.02 0.05 0.08 0.09 0.10 0.11 0.10 0.12 0.06 0.06 0.04 0.02 0.02 0.02 0.01 0.03 0.03 0.10 0.19 0.24 0.31 0.37 0.29 0.42 0.56 0.50 0.84 0.61 0.47 0.46 0.44 1.07 1.46 1.24 1.11 1.40 1.32 1.69 1.64 1.41 1.66 1.25 0.79 1.07 1.04 1.66 1.70 0.99 0.86 0.83 1.22 0.84 0.81 0.75 0.80 0.95 1.02 0.88 0.68 0.60 0.52 0.91 1.03
0.00 0.00 0.00 0.00 0.00 0.00 0.00 0.03 0.04 0.01 0.00 0.03 0.11 0.12 0.06 0.03 0.02 0.06 0.03 0.05 0.14 0.15 0.01 0.00 0.00 0.01 0.00 0.01 0.03 0.01 0.00 0.00 0.00 0.00 0.00 0.01 0.01 0.01 0.01 0.02 0.02 0.01 0.02 0.02 0.01 0.01 0.01 0.03 0.01 0.02 0.04 0.07 0.13 0.10 0.13 0.28 0.34 0.43 0.54 0.46 0.51 0.50 0.69 0.80 1.25 0.82 0.76 1.02 0.99 0.74 0.85 1.33 2.07 2.10 1.76 1.42 1.41 1.30 1.25 1.02 1.40 1.44 1.22 1.03 1.02 1.21 1.40 1.74 1.17 1.27 1.21 1.33 0.93 1.10 0.97 0.86 0.71
0.00 0.00 0.00 0.00 0.00 0.00 0.00 0.01 0.03 0.00 0.00 0.00 0.01 0.02 0.04 0.08 0.01 0.02 0.02 0.02 0.04 0.17 0.30 0.05 0.01 0.01 0.01 0.01 0.03 0.00 0.00 0.00 0.00 0.00 0.00 0.00 0.00 0.00 0.00 0.00 0.00 0.00 0.00 0.00 0.00 0.01 0.01 0.00 0.01 0.02 0.03 0.06 0.06 0.09 0.13 0.24 0.16 0.21 0.43 0.88 0.70 1.32 1.43 1.35 1.37 1.10 1.16 1.08 1.00 1.44 1.83 1.27 1.38 1.34 1.60 1.87 1.23 1.19 1.63 1.97 1.67 1.64 1.05 1.05 1.11 1.31 1.38 1.18 1.55 1.61 1.60 1.73 1.21 1.36 1.29 1.05 1.13
0.00 0.00 0.00 0.00 0.00 0.01 0.04 0.03 0.00 0.00 0.00 0.00 0.00 0.00 0.00 0.00 0.00 0.00 0.00 0.00 0.02 0.05 0.05 0.02 0.02 0.01 0.00 0.00 0.00 0.00 0.00 0.00 0.00 0.00 0.00 0.00 0.00 0.00 0.00 0.00 0.00 0.00 0.00 0.00 0.00 0.00 0.01 0.00 0.02 0.01 0.03 0.04 0.07 0.13 0.22 0.21 0.31 0.34 0.37 0.40 0.50 0.45 0.47 0.72 1.23 1.30 1.14 1.35 1.36 1.40 1.53 1.22 1.14 1.15 1.08 1.69 1.64 1.69 1.71 1.48 1.92 2.08 1.82 1.66 1.28 1.37 1.40 1.50 1.56 1.49 1.46 1.31 1.69 2.03 1.96 2.23 1.91
0.00 0.00 0.01 0.00 0.04 0.02 0.00 0.00 0.00 0.00 0.00 0.00 0.00 0.02 0.01 0.00 0.00 0.00 0.00 0.00 0.00 0.00 0.00 0.01 0.01 0.01 0.00 0.00 0.00 0.00 0.00 0.00 0.00 0.01 0.00 0.00 0.00 0.00 0.00 0.00 0.00 0.00 0.00 0.00 0.00 0.00 0.00 0.00 0.00 0.01 0.01 0.03 0.15 0.20 0.32 0.27 0.39 0.57 0.60 0.43 0.80 0.74 1.00 0.74 0.59 0.79 1.12 1.16 1.77 1.24 1.22 1.30 1.25 1.51 1.78 1.42 1.39 1.52 1.38 1.44 1.34 1.36 1.50 1.48 1.78 1.73 1.38 1.49 1.26 1.35 1.45 1.33 1.38 1.18 1.09 1.20 1.18
0.00 0.00 0.00 0.02 0.01 0.01 0.00 0.00 0.00 0.00 0.00 0.00 0.01 0.07 0.01 0.00 0.00 0.00 0.00 0.00 0.00 0.00 0.00 0.00 0.00 0.00 0.01 0.03 0.00 0.00 0.00 0.00 0.00 0.00 0.00 0.00 0.00 0.00 0.00 0.00 0.00 0.00 0.00 0.00 0.00 0.00 0.00 0.00 0.00 0.01 0.00 0.01 0.09 0.19 0.20 0.27 0.39 0.60 0.94 0.85 0.77 0.62 1.03 1.03 0.95 1.56 0.96 1.18 1.46 0.86 1.18 1.65 1.51 1.49 1.51 1.15 1.21 0.86 0.82 0.82 0.98 0.98 1.09 1.13 1.10 1.21 1.33 1.49 1.73 1.52 1.57 1.44 1.54 1.35 1.29 1.35 1.47
0.00 0.00 0.01 0.02 0.03 0.00 0.00 0.01 0.01 0.00 0.00 0.02 0.00 0.00 0.02 0.00 0.00 0.00 0.00 0.00 0.00 0.00 0.00 0.00 0.00 0.00 0.00 0.00 0.00 0.00 0.00 0.00 0.00 0.00 0.00 0.00 0.00 0.00 0.00 0.00 0.00 0.00 0.00 0.00 0.00 0.00 0.00 0.00 0.00 0.00 0.01 0.05 0.02 0.14 0.27 0.34 0.80 1.34 1.57 1.30 1.24 1.03 1.18 0.87 0.64 0.77 1.26 1.28 1.47 1.65 1.78 1.44 1.47 1.24 0.97 0.88 0.74 0.67 0.74 0.68 0.57 0.68 0.87 1.15 1.26 1.71 1.68 1.45 1.41 1.57 1.73 2.06 1.88 1.75 1.99 1.74 1.77
0.00 0.00 0.00 0.00 0.00 0.01 0.03 0.00 0.00 0.05 0.00 0.00 0.00 0.03 0.00 0.00 0.00 0.00 0.00 0.00 0.00 0.00 0.00 0.00 0.00 0.00 0.00 0.00 0.00 0.00 0.00 0.00 0.00 0.00 0.00 0.00 0.00 0.00 0.00 0.00 0.00 0.00 0.00 0.00 0.00 0.00 0.03 0.03 0.03 0.11 0.13 0.43 0.34 0.17 0.22 0.17 0.13 0.24 0.44 0.81 0.74 1.09 0.96 0.72 0.86 0.91 0.82 0.91 1.22 1.16 1.24 1.25 1.35 1.77 1.54 1.42 1.72 1.06 0.90 1.12 1.22 1.34 1.43 1.58 1.64 1.43 1.26 1.02 0.96 1.42 1.39 1.58 1.99 1.89 1.48 1.42 1.22
0.01 0.01 0.00 0.02 0.01 0.01 0.01 0.01 0.01 0.01 0.00 0.00 0.00 0.00 0.00 0.00 0.00 0.00 0.00 0.00 0.00 0.00 0.00 0.00 0.00 0.00 0.00 0.00 0.00 0.00 0.00 0.00 0.00 0.00 0.00 0.00 0.00 0.00 0.00 0.00 0.00 0.00 0.00 0.00 0.00 0.00 0.00 0.00 0.01 0.01 0.01 0.01 0.02 0.03 0.06 0.10 0.18 0.20 0.30 0.31 0.52 1.05 1.10 0.84 0.75 0.67 0.74 0.68 0.83 0.84 0.85 1.28 1.53 2.11 2.07 1.66 1.71 1.99 1.95 1.63 1.81 2.01 1.60 1.75 1.76 1.94 1.73 2.07 2.11 1.57 1.46 1.35 1.22 1.41 1.44 1.62 1.76
0.07 0.03 0.04 0.03 0.01 0.00 0.00 0.00 0.04 0.00 0.00 0.00 0.00 0.00 0.00 0.00 0.00 0.00 0.00 0.00 0.00 0.00 0.00 0.00 0.00 0.00 0.00 0.00 0.00 0.00 0.00 0.00 0.00 0.00 0.00 0.00 0.00 0.00 0.00 0.00 0.00 0.00 0.00 0.00 0.00 0.00 0.00 0.00 0.01 0.01 0.01 0.03 0.03 0.05 0.06 0.06 0.22 0.20 0.22 0.19 0.18 0.17 0.83 0.59 0.67 0.87 1.23 0.84 1.05 1.38 1.06 1.00 0.87 1.23 1.38 1.68 1.18 1.03 1.07 1.34 1.34 1.85 1.63 1.35 1.06 1.24 1.44 1.75 1.55 2.16 1.73 1.75 1.43 1.72 1.17 1.15 1.29
0.05 0.03 0.02 0.01 0.01 0.00 0.00 0.00 0.00 0.00 0.00 0.00 0.00 0.00 0.00 0.00 0.00 0.00 0.00 0.00 0.00 0.00 0.00 0.00 0.00 0.00 0.00 0.00 0.00 0.00 0.00 0.00 0.10 0.00 0.00 0.00 0.00 0.00 0.00 0.00 0.00 0.00 0.00 0.00 0.00 0.00 0.00 0.01 0.01 0.01 0.02 0.03 0.03 0.03 0.05 0.07 0.08 0.12 0.12 0.15 0.20 0.22 0.29 0.41 0.63 0.41 0.48 0.57 1.07 1.06 1.06 1.11 1.46 1.17 1.37 1.59 2.09 1.67 1.41 1.66 2.01 1.78 1.66 1.45 0.98 0.89 1.27 0.89 1.11 1.15 1.35 1.67 1.39 1.39 1.26 1.20 1.11
0.02 0.01 0.01 0.01 0.01 0.00 0.00 0.00 0.01 0.01 0.02 0.00 0.00 0.00 0.00 0.00 0.00 0.00 0.00 0.00 0.00 0.00 0.00 0.00 0.00 0.00 0.00 0.00 0.00 0.00 0.00 0.00 0.02 0.01 0.00 0.00 0.00 0.00 0.00 0.00 0.00 0.00 0.00 0.00 0.00 0.00 0.00 0.00 0.00 0.02 0.02 0.03 0.03 0.05 0.03 0.03 0.07 0.09 0.09 0.09 0.10 0.20 0.13 0.24 0.24 0.18 0.25 0.37 0.59 0.51 0.75 1.01 1.34 1.12 1.19 1.55 1.31 1.44 1.70 1.83 1.75 1.50 1.52 2.02 2.33 2.35 2.30 1.80 1.71 2.01 1.67 1.61 1.58 1.32 1.31 1.73 1.71
0.02 0.02 0.02 0.02 0.02 0.01 0.02 0.01 0.05 0.19 0.13 0.02 0.01 0.02 0.00 0.00 0.00 0.00 0.00 0.00 0.00 0.00 0.00 0.00 0.00 0.00 0.00 0.01 0.00 0.00 0.01 0.00 0.00 0.01 0.00 0.00 0.00 0.00 0.00 0.00 0.00 0.00 0.00 0.00 0.00 0.00 0.00 0.00 0.00 0.01 0.03 0.05 0.07 0.07 0.06 0.05 0.06 0.10 0.16 0.09 0.12 0.17 0.20 0.26 0.22 0.29 0.37 0.62 0.47 0.58 0.48 0.59 0.76 1.00 1.22 1.20 1.53 1.62 1.80 1.52 1.96 1.83 2.10 2.21 2.04 1.75 1.58 1.70 2.14 2.13 2.12 2.12 1.73 1.77 1.57 1.20 1.48
0.02 0.05 0.02 0.03 0.01 0.00 0.00 0.00 0.00 0.03 0.01 0.02 0.01 0.00 0.00 0.00 0.00 0.00 0.00 0.00 0.00 0.00 0.00 0.00 0.00 0.00 0.00 0.00 0.00 0.00 0.00 0.01 0.01 0.01 0.01 0.01 0.01 0.00 0.00 0.00 0.00 0.00 0.00 0.00 0.00 0.00 0.00 0.01 0.00 0.00 0.01 0.03 0.08 0.07 0.09 0.10 0.08 0.06 0.08 0.16 0.15 0.20 0.39 0.22 0.47 0.16 0.29 0.28 0.43 0.65 0.80 0.57 0.68 0.86 1.02 1.19 1.35 1.34 1.76 1.55 1.55 1.84 2.02 1.87 1.74 1.61 1.71 1.86 1.97 2.00 1.99 2.04 1.89 1.98 1.77 1.62 1.55
0.01 0.01 0.06 0.01 0.00 0.02 0.01 0.00 0.01 0.00 0.00 0.00 0.00 0.00 0.00 0.00 0.00 0.00 0.00 0.00 0.00 0.00 0.00 0.00 0.00 0.00 0.00 0.00 0.00 0.01 0.01 0.01 0.02 0.01 0.01 0.01 0.01 0.00 0.00 0.00 0.00 0.00 0.00 0.00 0.00 0.00 0.00 0.00 0.00 0.01 0.01 0.01 0.03 0.07 0.06 0.07 0.06 0.05 0.04 0.05 0.08 0.13 0.11 0.14 0.27 0.14 0.24 0.39 0.35 0.45 0.51 0.61 0.70 0.81 0.90 0.91 1.05 1.15 1.36 1.40 1.47 1.81 1.59 1.75 1.72 1.95 1.69 1.64 1.86 1.89 1.81 1.84 1.95 2.04 1.70 1.68 2.08
0.01 0.01 0.01 0.00 0.00 0.03 0.01 0.00 0.00 0.00 0.00 0.00 0.00 0.01 0.00 0.00 0.00 0.02 0.02 0.00 0.00 0.00 0.00 0.00 0.00 0.00 0.00 0.00 0.00 0.01 0.01 0.02 0.02 0.01 0.01 0.01 0.01 0.01 0.00 0.00 0.00 0.00 0.00 0.00 0.00 0.00 0.00 0.00 0.00 0.01 0.02 0.02 0.02 0.05 0.09 0.11 0.12 0.14 0.16 0.15 0.13 0.09 0.10 0.10 0.14 0.18 0.18 0.18 0.24 0.32 0.55 0.65 0.81 0.90 0.86 0.93 0.90 1.00 1.21 1.16 1.30 1.38 1.20 1.59 1.75 1.70 1.58 1.56 1.69 1.82 1.65 1.84 1.99 2.02 1.92 1.68 1.71
0.01 0.00 0.00 0.01 0.01 0.00 0.00 0.00 0.03 0.01 0.00 0.01 0.02 0.05 0.01 0.00 0.01 0.03 0.00 0.00 0.00 0.00 0.00 0.00 0.10 0.00 0.00 0.00 0.01 0.01 0.01 0.01 0.01 0.01 0.01 0.01 0.01 0.01 0.00 0.00 0.00 0.00 0.00 0.00 0.00 0.00 0.00 0.00 0.00 0.01 0.00 0.02 0.03 0.03 0.03 0.07 0.12 0.17 0.18 0.14 0.11 0.10 0.10 0.09 0.12 0.25 0.20 0.16 0.34 0.28 0.29 0.43 0.68 0.92 1.08 0.92 0.80 1.11 0.79 0.83 1.11 1.24 1.30 1.32 1.62 1.56 1.45 1.69 1.45 1.68 2.17 2.16 2.15 2.38 2.20 2.07 1.88
0.02 0.00 0.00 0.01 0.01 0.00 0.00 0.00 0.11 0.02 0.03 0.01 0.00 0.18 0.03 0.00 0.00 0.00 0.01 0.00 0.00 0.00 0.00 0.01 0.09 0.04 0.00 0.01 0.01 0.01 0.01 0.01 0.01 0.01 0.01 0.01 0.01 0.00 0.00 0.00 0.00 0.00 0.00 0.00 0.00 0.00 0.00 0.00 0.00 0.00 0.00 0.00 0.00 0.02 0.03 0.05 0.07 0.11 0.16 0.20 0.16 0.12 0.10 0.09 0.17 0.15 0.13 0.21 0.24 0.22 0.20 0.28 0.37 0.43 0.55 0.58 0.68 0.85 1.04 0.89 0.86 1.00 0.97 1.18 1.44 1.66 1.49 1.50 1.70 1.96 1.85 1.79 1.91 1.90 2.16 2.06 1.88
0.01 0.00 0.00 0.00 0.00 0.00 0.00 0.01 0.05 0.02 0.01 0.00 0.02 0.01 0.12 0.01 0.00 0.00 0.00 0.02 0.00 0.01 0.02 0.01 0.01 0.03 0.03 0.01 0.00 0.00 0.01 0.01 0.01 0.01 0.01 0.01 0.01 0.00 0.00 0.00 0.00 0.00 0.00 0.00 0.00 0.00 0.00 0.00 0.00 0.00 0.00 0.00 0.00 0.00 0.01 0.03 0.07 0.09 0.11 0.13 0.15 0.15 0.16 0.16 0.16 0.19 0.14 0.16 0.17 0.24 0.17 0.18 0.21 0.24 0.33 0.40 0.40 0.49 0.75 1.06 1.24 1.01 1.44 1.28 1.17 1.43 1.53 1.42 1.45 1.66 1.80 2.03 2.01 1.98 2.28 2.08 2.00
0.00 0.00 0.00 0.00 0.00 0.00 0.01 0.03 0.02 0.04 0.04 0.07 0.03 0.03 0.08 0.04 0.01 0.00 0.00 0.01 0.01 0.02 0.02 0.12 0.01 0.04 0.02 0.01 0.01 0.01 0.01 0.01 0.01 0.01 0.01 0.00 0.00 0.00 0.00 0.00 0.00 0.00 0.00 0.01 0.01 0.00 0.00 0.00 0.01 0.01 0.00 0.00 0.00 0.00 0.01 0.02 0.05 0.05 0.08 0.11 0.16 0.16 0.19 0.16 0.12 0.11 0.09 0.09 0.12 0.27 0.49 0.45 0.58 0.66 0.77 0.76 0.60 0.71 0.77 0.78 0.94 0.83 0.98 1.55 1.48 1.31 1.20 1.21 1.21 1.18 1.34 1.38 1.39 1.48 1.45 1.65 1.66
0.01 0.00 0.00 0.01 0.05 0.03 0.03 0.03 0.04 0.06 0.09 0.13 0.04 0.03 0.11 0.02 0.00 0.00 0.03 0.01 0.02 0.02 0.05 0.03 0.02 0.02 0.02 0.02 0.01 0.01 0.01 0.01 0.01 0.01 0.00 0.00 0.00 0.00 0.00 0.00 0.01 0.01 0.01 0.01 0.01 0.01 0.01 0.01 0.01 0.01 0.01 0.00 0.00 0.01 0.02 0.02 0.03 0.05 0.06 0.12 0.17 0.21 0.27 0.36 0.37 0.38 0.46 0.20 0.20 0.23 0.21 0.14 0.12 0.17 0.19 0.25 0.32 0.41 0.47 0.42 0.46 0.49 0.63 0.99 1.39 1.15 1.17 1.57 1.28 1.13 1.08 1.06 1.30 1.24 1.30 1.30 1.55
0.01 0.03 0.12 0.12 0.15 0.02 0.12 0.10 0.08 0.06 0.25 0.15 0.03 0.01 0.03 0.10 0.01 0.01 0.02 0.01 0.01 0.01 0.03 0.04 0.02 0.01 0.02 0.01 0.00 0.00 0.00 0.00 0.00 0.00 0.00 0.00 0.00 0.00 0.01 0.02 0.03 0.03 0.02 0.02 0.01 0.01 0.01 0.01 0.02 0.02 0.01 0.01 0.04 0.06 0.04 0.06 0.07 0.08 0.06 0.12 0.11 0.09 0.12 0.15 0.19 0.12 0.13 0.14 0.23 0.16 0.15 0.15 0.19 0.19 0.19 0.25 0.22 0.31 0.34 0.34 0.71 0.52 0.72 0.64 0.57 0.68 0.66 0.92 0.97 1.09 1.27 1.42 1.45 1.38 1.69 1.33 1.30
0.22 0.25 0.10 0.21 0.14 0.09 0.04 0.03 0.03 0.15 0.20 0.05 0.01 0.00 0.01 0.19 0.02 0.00 0.01 0.01 0.01 0.05 0.01 0.02 0.02 0.00 0.01 0.01 0.00 0.00 0.00 0.00 0.00 0.00 0.00 0.01 0.01 0.02 0.03 0.04 0.04 0.03 0.03 0.02 0.02 0.01 0.01 0.01 0.01 0.02 0.02 0.01 0.01 0.02 0.02 0.03 0.02 0.05 0.08 0.06 0.07 0.09 0.09 0.09 0.12 0.15 0.15 0.10 0.10 0.14 0.17 0.17 0.19 0.32 0.24 0.26 0.39 0.38 0.27 0.31 0.48 0.42 0.33 0.31 0.40 0.41 0.62 0.45 0.37 0.52 0.55 0.64 0.76 0.91 0.93 0.99 1.18
0.38 0.12 0.29 0.17 0.22 0.14 0.15 0.06 0.11 0.12 0.07 0.01 0.00 0.00 0.01 0.01 0.00 0.01 0.00 0.00 0.05 0.02 0.01 0.02 0.01 0.01 0.02 0.01 0.00 0.00 0.00 0.00 0.01 0.03 0.02 0.03 0.04 0.07 0.06 0.06 0.05 0.08 0.04 0.03 0.05 0.04 0.02 0.02 0.02 0.02 0.02 0.03 0.03 0.04 0.02 0.03 0.05 0.04 0.03 0.04 0.05 0.06 0.09 0.09 0.05 0.05 0.05 0.09 0.10 0.13 0.17 0.24 0.15 0.16 0.25 0.30 0.35 0.43 0.42 0.32 0.37 0.33 0.36 0.36 0.59 0.40 0.55 0.63 0.49 0.43 0.53 0.74 0.68 0.60 0.65 0.78 0.90
0.07 0.05 0.12 0.34 0.34 0.27 0.24 0.16 0.10 0.05 0.04 0.01 0.00 0.00 0.01 0.00 0.01 0.02 0.00 0.02 0.04 0.07 0.03 0.01 0.01 0.01 0.01 0.00 0.01 0.02 0.01 0.00 0.01 0.02 0.03 0.05 0.06 0.07 0.07 0.07 0.09 0.06 0.09 0.09 0.06 0.05 0.06 0.06 0.08 0.04 0.03 0.02 0.03 0.04 0.03 0.05 0.04 0.05 0.04 0.07 0.06 0.06 0.05 0.04 0.04 0.04 0.05 0.07 0.04 0.05 0.05 0.06 0.07 0.09 0.14 0.14 0.15 0.25 0.20 0.25 0.31 0.40 0.40 0.40 0.40 0.38 0.45 0.43 0.41 0.41 0.49 0.54 0.55 0.65 0.61 0.65 0.87
0.01 0.00 0.02 0.08 0.15 0.25 0.31 0.22 0.21 0.13 0.12 0.06 0.01 0.01 0.02 0.01 0.01 0.00 0.01 0.05 0.02 0.15 0.09 0.03 0.01 0.01 0.00 0.00 0.00 0.01 0.04 0.04 0.02 0.03 0.05 0.05 0.06 0.05 0.06 0.06 0.06 0.06 0.05 0.04 0.04 0.03 0.04 0.02 0.05 0.04 0.04 0.04 0.06 0.03 0.04 0.04 0.04 0.03 0.04 0.05 0.04 0.03 0.03 0.04 0.05 0.03 0.03 0.03 0.03 0.03 0.03 0.04 0.05 0.06 0.09 0.10 0.14 0.14 0.18 0.24 0.33 0.34 0.35 0.38 0.52 0.57 0.51 0.56 0.51 0.47 0.55 0.52 0.43 0.49 0.57 0.66 0.69
0.02 0.02 0.48 0.24 0.13 0.57 0.41 0.34 0.28 0.18 0.15 0.11 0.06 0.03 0.00 0.00 0.00 0.00 0.00 0.02 0.04 0.09 0.04 0.03 0.01 0.01 0.00 0.00 0.00 0.01 0.07 0.09 0.04 0.04 0.05 0.06 0.06 0.05 0.05 0.05 0.04 0.04 0.05 0.04 0.09 0.08 0.08 0.10 0.05 0.03 0.04 0.03 0.02 0.03 0.02 0.03 0.04 0.05 0.05 0.04 0.03 0.04 0.04 0.05 0.05 0.04 0.04 0.04 0.04 0.05 0.07 0.06 0.05 0.05 0.09 0.07 0.14 0.13 0.14 0.16 0.19 0.23 0.24 0.30 0.29 0.38 0.37 0.43 0.41 0.51 0.45 0.44 0.50 0.42 0.43 0.47 0.53
0.24 0.07 0.12 0.13 0.11 0.09 0.22 0.19 0.12 0.13 0.25 0.29 0.05 0.02 0.00 0.00 0.00 0.01 0.00 0.06 0.04 0.09 0.01 0.03 0.02 0.12 0.01 0.02 0.01 0.01 0.02 0.04 0.05 0.07 0.08 0.09 0.07 0.06 0.03 0.03 0.03 0.04 0.03 0.02 0.03 0.02 0.03 0.03 0.03 0.03 0.05 0.07 0.11 0.06 0.03 0.07 0.05 0.06 0.05 0.06 0.08 0.05 0.05 0.07 0.08 0.08 0.07 0.08 0.09 0.08 0.08 0.08 0.08 0.08 0.09 0.08 0.08 0.09 0.11 0.14 0.18 0.25 0.25 0.38 0.40 0.43 0.52 0.45 0.34 0.34 0.37 0.47 0.45 0.45 0.46 0.45 0.43
0.03 0.06 0.06 0.02 0.01 0.02 0.28 0.48 0.33 0.46 0.39 0.24 0.04 0.03 0.02 0.00 0.05 0.00 0.02 0.04 0.03 0.05 0.06 0.02 0.06 0.04 0.03 0.11 0.03 0.03 0.05 0.07 0.08 0.09 0.09 0.07 0.05 0.03 0.03 0.03 0.03 0.03 0.02 0.03 0.03 0.06 0.05 0.18 0.09 0.04 0.04 0.06 0.07 0.09 0.08 0.09 0.05 0.05 0.05 0.06 0.06 0.06 0.07 0.08 0.08 0.10 0.09 0.10 0.10 0.11 0.09 0.10 0.10 0.10 0.11 0.12 0.12 0.14 0.15 0.16 0.17 0.18 0.21 0.24 0.29 0.36 0.39 0.41 0.59 0.54 0.52 0.48 0.50 0.50 0.52 0.55 0.53
0.03 0.06 0.36 0.07 0.35 0.33 0.34 0.43 1.01 0.75 0.66 0.33 0.11 0.04 0.02 0.01 0.04 0.01 0.03 0.08 0.05 0.04 0.04 0.04 0.02 0.03 0.02 0.03 0.06 0.06 0.08 0.10 0.10 0.08 0.07 0.06 0.04 0.03 0.02 0.04 0.04 0.07 0.10 0.10 0.07 0.08 0.04 0.03 0.05 0.06 0.07 0.06 0.07 0.09 0.07 0.07 0.06 0.07 0.06 0.05 0.06 0.07 0.08 0.08 0.08 0.11 0.11 0.10 0.11 0.12 0.14 0.14 0.16 0.15 0.18 0.17 0.18 0.19 0.20 0.20 0.20 0.22 0.30 0.24 0.23 0.25 0.25 0.27 0.31 0.37 0.36 0.38 0.38 0.39 0.41 0.46 0.47
0.03 0.03 0.15 0.13 0.19 0.20 0.53 0.54 0.62 0.86 0.83 0.76 0.47 0.13 0.09 0.01 0.01 0.01 0.11 0.14 0.04 0.04 0.05 0.03 0.03 0.04 0.04 0.05 0.06 0.08 0.09 0.10 0.08 0.08 0.06 0.05 0.04 0.02 0.03 0.03 0.04 0.11 0.13 0.22 0.18 0.10 0.05 0.04 0.07 0.06 0.07 0.06 0.09 0.08 0.08 0.08 0.07 0.08 0.07 0.07 0.09 0.10 0.12 0.13 0.12 0.13 0.15 0.17 0.15 0.17 0.22 0.19 0.16 0.15 0.17 0.17 0.19 0.19 0.21 0.22 0.22 0.23 0.25 0.42 0.31 0.29 0.34 0.28 0.29 0.29 0.31 0.30 0.31 0.33 0.38 0.44 0.45
0.06 0.06 0.11 0.18 0.20 0.22 0.45 0.41 0.50 0.60 0.64 0.76 0.63 0.52 0.18 0.03 0.01 0.01 0.14 0.03 0.04 0.02 0.04 0.04 0.04 0.04 0.04 0.07 0.08 0.09 0.09 0.13 0.14 0.11 0.09 0.04 0.08 0.12 0.09 0.20 0.17 0.13 0.08 0.06 0.04 0.05 0.07 0.06 0.07 0.08 0.08 0.09 0.08 0.08 0.08 0.08 0.09 0.09 0.10 0.13 0.15 0.16 0.15 0.20 0.17 0.19 0.21 0.21 0.22 0.25 0.20 0.21 0.25 0.24 0.17 0.18 0.17 0.19 0.20 0.22 0.24 0.26 0.28 0.35 0.33 0.38 0.34 0.37 0.39 0.38 0.39 0.39 0.40 0.41 0.43 0.43 0.43
0.03 0.06 0.09 0.08 0.15 0.21 0.60 1.02 0.41 0.46 0.70 0.82 0.59 0.55 0.19 0.03 0.00 0.03 0.02 0.02 0.02 0.02 0.03 0.11 0.05 0.05 0.08 0.10 0.09 0.09 0.08 0.05 0.04 0.05 0.10 0.15 0.12 0.22 0.15 0.10 0.03 0.04 0.05 0.05 0.06 0.08 0.09 0.10 0.11 0.13 0.13 0.14 0.13 0.12 0.13 0.13 0.15 0.17 0.23 0.22 0.18 0.19 0.20 0.19 0.20 0.18 0.19 0.20 0.27 0.26 0.26 0.22 0.26 0.18 0.22 0.19 0.20 0.21 0.22 0.22 0.24 0.25 0.25 0.27 0.35 0.35 0.35 0.39 0.41 0.40 0.39 0.41 0.45 0.50 0.48 0.49 0.47